This is the latest recevied weather packets stored in our database for station/object KN6DHD. If no packets are shown the sender has not sent any weather packets the latest 10 day(s).
| Time | Temp. | Humidity | Pressure | Rain* | Wind** | Luminosity | Snow |
|---|---|---|---|---|---|---|---|
| 1777584635 | 28.89° C | 43% | 1012.8 hPa | 0 mm | - | 694 W/m² | - |
| 1777584332 | 27.78° C | 42% | 1012.9 hPa | 0 mm | - | 661 W/m² | - |
| 1777584028 | 28.33° C | 43% | 1013 hPa | 0 mm | - | 653 W/m² | - |
| 1777583723 | 28.33° C | 43% | 1012.9 hPa | 0 mm | - | 652 W/m² | - |
| 1777583422 | 27.78° C | 43% | 1012.9 hPa | 0 mm | - | 667 W/m² | - |
| 1777583121 | 27.78° C | 43% | 1012.8 hPa | 0 mm | - | 687 W/m² | - |
| 1777582817 | 26.67° C | 46% | 1012.8 hPa | 0 mm | - | 672 W/m² | - |
| 1777582514 | 26.11° C | 47% | 1013 hPa | 0 mm | - | 654 W/m² | - |
| 1777582209 | 26.67° C | 44% | 1013.1 hPa | 0 mm | - | 624 W/m² | - |
| 1777581907 | 27.22° C | 45% | 1012.8 hPa | 0 mm | - | 644 W/m² | - |
| 1777581603 | 27.22° C | 45% | 1013 hPa | 0 mm | - | 651 W/m² | - |
| 1777581296 | 26.67° C | 46% | 1013.2 hPa | 0 mm | - | 638 W/m² | - |
| 1777580991 | 26.67° C | 46% | 1013.2 hPa | 0 mm | - | 625 W/m² | - |
| 1777580686 | 26.67° C | 46% | 1013.3 hPa | 0 mm | - | 641 W/m² | - |
| 1777580382 | 26.67° C | 48% | 1013.3 hPa | 0 mm | - | 664 W/m² | - |
| 1777580078 | 26.67° C | 47% | 1013.5 hPa | 0 mm | - | 643 W/m² | - |
| 1777579775 | 26.11° C | 48% | 1013.4 hPa | 0 mm | - | 658 W/m² | - |
| 1777579472 | 25.56° C | 48% | 1013.6 hPa | 0 mm | - | 658 W/m² | - |
| 1777579168 | 26.11° C | 47% | 1013.6 hPa | 0 mm | - | 657 W/m² | - |
| 1777578863 | 25° C | 50% | 1013.6 hPa | 0 mm | - | 650 W/m² | - |
| 1777578559 | 25.56° C | 49% | 1013.5 hPa | 0 mm | - | 643 W/m² | - |
| 1777578254 | 25° C | 49% | 1013.7 hPa | 0 mm | - | 627 W/m² | - |
| 1777577950 | 25.56° C | 48% | 1013.5 hPa | 0 mm | - | 645 W/m² | - |
| 1777577645 | 25° C | 50% | 1013.8 hPa | 0 mm | - | 662 W/m² | - |
| 1777577343 | 25° C | 51% | 1014 hPa | 0 mm | - | 676 W/m² | - |
* Rain latest hour (hover to see other rain measurements)
** Current wind speed in m/s (hover to see current wind gust speed)